Regional Weather Roundup
Issued by NWS

Home | Current Version | Previous Version | Text Only | Print | Product List | Glossary On
Versions: 1 2 3 4 5 6 7 8 9 10 11 12 13 14 15 16 17 18 19 20 21 22 23 24 25 26 27 28
000
ASUS46 KSEW 281710
RWRWA

WASHINGTON REGIONAL WEATHER ROUNDUP
NATIONAL WEATHER SERVICE SEATTLE WA
1000 AM PDT SUN AUG 28 2016

NOTE:"FAIR" INDICATES FEW OR NO CLOUDS BELOW 12,000 FEET WITH NO
SIGNIFICANT WEATHER AND/OR OBSTRUCTIONS TO VISIBILITY.

WAZ505-507>509-281800-
SEATTLE, TACOMA, EVERETT, AND VICINITY

CITY           SKY/WX    TMP DP  RH WIND       PRES   REMARKS
EVERETT        CLOUDY    60  49  66 S7        30.10R
BOEING FIELD   CLOUDY    72  52  49 S7        30.09R
RENTON         PTSUNNY   62  51  67 S5        30.08R
SEATAC AIRPORT PTSUNNY   61  50  67 S7        30.10R
JBLM-MCCHORD   PTSUNNY   61  52  71 CALM      30.08F
PUYALLUP       FAIR      63  54  72 CALM      30.09S
BREMERTON      CLOUDY    59  52  77 SW6       30.12F
JBLM-FT LEWIS  CLOUDY    60  52  75 VRB2      30.08S
TACOMA NARROWS PTSUNNY   61  50  67 S7        30.09R
$$

WAZ001-503-506-510-514-515-281800-
NORTH INTERIOR

CITY           SKY/WX    TMP DP  RH WIND       PRES   REMARKS
BELLINGHAM     CLOUDY    61  53  75 CALM      30.08S
FRIDAY HARBOR  CLOUDY    60  53  77 CALM      30.09R
EASTSOUND      PTSUNNY   59  54  82 S3        30.07S
PORT ANGELES   CLOUDY    60  52  74 VRB3      30.08S
EDIZ HOOK      CLOUDY    57  53  86 CALM      30.08S
PORT TOWNSEND  CLOUDY    57  55  94 E5        30.09R FOG
NAS WHIDBEY    CLOUDY    63  49  60 S10       30.12S
ARLINGTON      CLOUDY    61  46  59 SE7       30.11R
BURLINGTON     PTSUNNY   63  52  67 S7        30.08F
$$

WAZ020-022-039-040-504-511-512-281800-
SOUTHWEST INTERIOR

CITY           SKY/WX    TMP DP  RH WIND       PRES   REMARKS
SHELTON        CLOUDY    62  49  62 CALM      30.06S
OLYMPIA        PTSUNNY   61  50  67 CALM      30.08F
CHEHALIS       PTSUNNY   63  52  67 VRB3      30.08F
KELSO          SUNNY     63  53  70 CALM      30.08S
VANCOUVER      SUNNY     65  54  67 NW6       30.07S
SCAPPOOSE, OR  SUNNY     65  52  62 CALM      30.06S
PORTLAND, OR   MOSUNNY   65  53  65 VRB3      30.07S
$$

WAZ021-516-517-281800-
WASHINGTON COAST

CITY           SKY/WX    TMP DP  RH WIND       PRES   REMARKS
FORKS          CLOUDY    62  53  72 SE5       30.07R
HOQUIAM        CLOUDY    61  53  75 CALM      30.08R
ASTORIA, OR    CLOUDY    64  52  64 E5        30.07R
$$

WAZ019-023-024-040-518-519-281800-
CASCADE MOUNTAINS AND COLUMBIA GORGE

CITY           SKY/WX    TMP DP  RH WIND       PRES   REMARKS
STAMPEDE PASS  CLOUDY    54  39  57 CALM      30.13R
TROUTDALE, OR  SUNNY     64  54  69 CALM      30.06F
THE DALLES, OR SUNNY     74  52  46 NW8       30.01S
$$

WAZ026-027-041>044-520-521-281800-
EAST SLOPES

CITY           SKY/WX    TMP DP  RH WIND       PRES   REMARKS
OMAK           MOSUNNY   72  43  35 N6        30.01S
WENATCHEE      CLOUDY    69  42  37 NW6       30.03R
ELLENSBURG     CLOUDY    69  45  41 W5        30.05R
YAKIMA         PTSUNNY   73  43  33 CALM      30.04R
$$

WAZ028-034-035-281800-
COLUMBIA BASIN

CITY           SKY/WX    TMP DP  RH WIND       PRES   REMARKS
EPHRATA        PTSUNNY   74  42  31 S6        30.02R
MOSES LAKE     PTSUNNY   72  42  34 VRB3      30.03R
PASCO          MOSUNNY   74  47  38 CALM      30.03R
HERMISTON, OR  SUNNY     78  48  34 W7        30.01S
$$

WAZ036>038-281800-
NORTHEAST WASHINGTON

CITY           SKY/WX    TMP DP  RH WIND       PRES   REMARKS
SPOKANE GEIGER PTSUNNY   66  43  43 S5        30.06R
SPOKANE FELTS  SUNNY     68  43  40 VRB6      30.06R
FAIRCHILD AFB  MOSUNNY   65  43  44 VRB1      30.06R
COEURDALENE,ID MOSUNNY   66  45  45 S10       30.05R
DEER PARK      SUNNY     64  43  46 S7        30.06R
$$

WAZ029>033-281800-
SOUTHEAST WASHINGTON

CITY           SKY/WX    TMP DP  RH WIND       PRES   REMARKS
PULLMAN        MOSUNNY   68  46  45 SW5       30.11R
LEWISTON, ID   PTSUNNY   74  49  41 NW5       30.04R
WALLA WALLA    MOSUNNY   76  44  32 SW10      30.04R
PENDLETON, OR  SUNNY     73  50  44 VRB3      30.05S
$$




USA.gov is the U.S. government's official web portal to all federal, state and local government web resources and services.